Location: Le Rocchette
(44.3500°N, 7.8333°E)
Time: 02:53:46
(UTC+00:00)

Meteor PRIRODA - Pass Details

Date: 17 November 2019
Orbit: 490 x 512 km, 97.5° (Epoch: 05 December)

Event Time Altitude Azimuth Distance (km) Brightness Sun altitude
Rises 04:57:55 0° 4° (N) 2,602 7.2 -15.8°
Reaches altitude 10° 05:00:07 10° 356° (N) 1,709 6.2 -15.4°
Maximum altitude 05:03:29 36° 289° (WNW) 809 4.1 -14.8°
Drops below altitude 10° 05:06:50 10° 222° (SW) 1,686 6.0 -14.3°
Sets 05:08:59 0° 213° (SSW) 2,561 7.0 -13.9°
